DEVIC EDXH-EDXB

Flight info

Callsign DEVIC
Flight time 0h 17m
Altitude 1500
Route WANZA
Aircraft BT36/L-BDFGLORY/S

Departure

Time 2026-05-04 14:24
Airport Helgoland-Düne Airport (EDXH)

Arrival

Time 2026-05-04 14:42
Airport Heide-Büsum Airport (EDXB)
Time Latitude Longitude Altitude Speed Heading
2026-05-04 13:56 54.18660 7.91453 4 ft 0 kts 144°
2026-05-04 14:21 54.18656 7.91457 7 ft 4 kts 158°
2026-05-04 14:21 54.18633 7.91409 4 ft 8 kts 207°
2026-05-04 14:21 54.18596 7.91391 4 ft 11 kts 263°
2026-05-04 14:21 54.18629 7.91321 6 ft 10 kts 315°
2026-05-04 14:22 54.18656 7.91289 7 ft 3 kts 301°
2026-05-04 14:22 54.18645 7.91276 7 ft 0 kts 130°
2026-05-04 14:23 54.18634 7.91296 7 ft 23 kts 135°
2026-05-04 14:24 54.18221 7.91816 68 ft 108 kts 140°
2026-05-04 14:24 54.17571 7.92714 506 ft 122 kts 123°
2026-05-04 14:24 54.17513 7.94043 797 ft 118 kts 54°
2026-05-04 14:24 54.18092 7.95062 952 ft 126 kts 40°
2026-05-04 14:25 54.18739 7.96138 1090 ft 132 kts 47°
2026-05-04 14:25 54.19221 7.99372 1147 ft 146 kts 74°
2026-05-04 14:25 54.19407 8.01090 1256 ft 147 kts 79°
2026-05-04 14:26 54.19546 8.02826 1328 ft 148 kts 80°
2026-05-04 14:26 54.19675 8.04569 1432 ft 148 kts 80°
2026-05-04 14:26 54.19808 8.06332 1485 ft 152 kts 81°
2026-05-04 14:26 54.19940 8.08133 1505 ft 153 kts 80°
2026-05-04 14:27 54.20102 8.09945 1497 ft 156 kts 78°
2026-05-04 14:27 54.20259 8.11775 1492 ft 155 kts 80°
2026-05-04 14:27 54.20413 8.13600 1487 ft 156 kts 80°
2026-05-04 14:27 54.20566 8.15423 1491 ft 156 kts 79°
2026-05-04 14:28 54.20721 8.17259 1491 ft 157 kts 79°
2026-05-04 14:28 54.20879 8.19135 1489 ft 161 kts 80°
2026-05-04 14:28 54.21036 8.21019 1488 ft 161 kts 80°
2026-05-04 14:28 54.21192 8.22908 1489 ft 161 kts 80°
2026-05-04 14:29 54.21509 8.26697 1490 ft 162 kts 79°
2026-05-04 14:29 54.21823 8.30486 1490 ft 161 kts 80°
2026-05-04 14:30 54.21981 8.32379 1487 ft 161 kts 79°
2026-05-04 14:30 54.22139 8.34289 1490 ft 163 kts 79°
2026-05-04 14:30 54.22456 8.38132 1488 ft 163 kts 79°
2026-05-04 14:31 54.22578 8.40060 1486 ft 164 kts 90°
2026-05-04 14:31 54.22053 8.43852 1488 ft 164 kts 102°
2026-05-04 14:32 54.21511 8.47669 1487 ft 165 kts 103°
2026-05-04 14:32 54.21237 8.49572 1489 ft 166 kts 103°
2026-05-04 14:32 54.20964 8.51476 1479 ft 165 kts 103°
2026-05-04 14:32 54.20691 8.53374 1479 ft 165 kts 102°
2026-05-04 14:33 54.20418 8.55269 1480 ft 165 kts 102°
2026-05-04 14:33 54.20143 8.57176 1481 ft 166 kts 103°
2026-05-04 14:33 54.19866 8.59087 1483 ft 165 kts 103°
2026-05-04 14:33 54.19590 8.60994 1482 ft 166 kts 102°
2026-05-04 14:34 54.19313 8.62913 1481 ft 167 kts 103°
2026-05-04 14:34 54.19035 8.64834 1478 ft 166 kts 103°
2026-05-04 14:34 54.18756 8.66752 1478 ft 167 kts 102°
2026-05-04 14:34 54.18476 8.68683 1475 ft 168 kts 103°
2026-05-04 14:35 54.18197 8.70591 1477 ft 167 kts 103°
2026-05-04 14:35 54.17917 8.72515 1477 ft 167 kts 103°
2026-05-04 14:35 54.17637 8.74438 1478 ft 167 kts 103°
2026-05-04 14:35 54.17355 8.76366 1475 ft 168 kts 102°
2026-05-04 14:36 54.17074 8.78291 1476 ft 168 kts 103°
2026-05-04 14:36 54.16788 8.80241 1442 ft 167 kts 103°
2026-05-04 14:36 54.16526 8.82005 1307 ft 147 kts 102°
2026-05-04 14:36 54.16289 8.83671 1153 ft 142 kts 99°
2026-05-04 14:37 54.16504 8.85219 1000 ft 134 kts 44°
2026-05-04 14:37 54.17209 8.86294 999 ft 144 kts 37°
2026-05-04 14:37 54.17968 8.87444 1002 ft 139 kts 37°
2026-05-04 14:37 54.18644 8.88510 988 ft 130 kts 38°
2026-05-04 14:38 54.19232 8.89693 983 ft 136 kts 69°
2026-05-04 14:38 54.19141 8.91296 987 ft 139 kts 106°
2026-05-04 14:38 54.18867 8.92866 994 ft 134 kts 105°
2026-05-04 14:38 54.18602 8.94379 995 ft 133 kts 105°
2026-05-04 14:39 54.18355 8.95894 988 ft 131 kts 104°
2026-05-04 14:39 54.18001 8.97298 981 ft 128 kts 135°
2026-05-04 14:39 54.17203 8.97683 978 ft 119 kts 197°
2026-05-04 14:40 54.15589 8.97101 839 ft 115 kts 200°
2026-05-04 14:40 54.14857 8.96769 781 ft 106 kts 206°
2026-05-04 14:40 54.14438 8.95892 726 ft 97 kts 261°
2026-05-04 14:40 54.14409 8.94815 587 ft 85 kts 281°
2026-05-04 14:41 54.14579 8.93843 471 ft 86 kts 292°
2026-05-04 14:41 54.14787 8.92894 354 ft 85 kts 290°
2026-05-04 14:41 54.15164 8.91020 74 ft 83 kts 291°
2026-05-04 14:42 54.15412 8.89822 9 ft 25 kts 289°
2026-05-04 14:42 54.15403 8.89703 9 ft 10 kts 189°
2026-05-04 14:42 54.15354 8.89658 10 ft 2 kts 248°
2026-05-04 14:43 54.15358 8.89609 10 ft 8 kts 284°
2026-05-04 14:43 54.15379 8.89572 10 ft 7 kts 110°
2026-05-04 14:43 54.15373 8.89576 10 ft 0 kts 196°